Location: Bergholz
(53.4421°N, 14.1699°E)
Time: 23:08:23
(UTC+00:00)

Daily predictions for brighter satellites

Satellite Brightness Start Highest point End
(mag) Time Altitude Azimuth Time Altitude Azimuth Time Altitude Azimuth
CENTAUR R/B 3.5 17:34:59 10° NW 17:42:20 54° NNE 17:50:43 10° ESE
ARGOS 3.3 17:37:23 10° SE 17:42:36 55° ENE 17:47:52 10° N
ATLAS 5 CENTAUR R/B 2.9 17:41:08 10° WNW 17:43:34 40° SW 17:49:16 10° SSE
Cosmos 1707 3.4 17:40:44 10° N 17:44:19 35° ENE 17:47:52 10° SE
Cosmos 1733 Rocket 4.3 17:40:06 10° SSW 17:44:24 48° WNW 17:48:42 10° N
Lacrosse 4 Rocket 3.8 17:43:40 10° N 17:45:01 11° N 17:46:24 10° NNE
Resurs 01 Rocket 3.5 17:42:45 10° E 17:45:16 15° NE 17:47:48 10° NNE
ATLAS 3B R/B 3.7 17:42:02 10° NW 17:48:11 37° N 17:54:32 10° ENE
Cosmos 1743 3.2 17:44:51 10° SSW 17:48:40 66° WNW 17:52:30 10° N
Iridium 4 Rocket 3.5 17:44:30 10° S 17:49:28 78° E 17:54:58 10° N
USA 238 DEB 4.0 17:43:18 10° NW 17:50:22 64° NNE 17:57:44 10° ESE
USA 238 4.0 17:43:25 10° NW 17:50:28 64° NNE 17:57:50 10° ESE
SJ-6B 3.7 17:47:27 10° ESE 17:50:39 28° ENE 17:53:54 10° N
Sich 1 Rocket 4.2 17:46:48 10° SSE 17:50:53 35° E 17:55:02 10° NNE
NOSS 3-1 (C) 4.1 17:48:31 10° WSW 17:54:14 58° NNW 18:01:03 10° NE
ATLAS CENTAUR R/B 2.7 17:50:55 10° WSW 17:54:33 37° NW 17:58:03 10° NE
Cosmos 2263 Rocket 2.3 17:52:03 10° S 17:57:28 56° ESE 18:02:57 10° NE
Meteor 2-9 Rocket 4.3 17:54:42 10° S 18:00:31 69° E 18:06:16 10° NNE
USA 102 4.3 17:55:36 10° SSE 18:02:04 60° SW 18:04:34 10° NW
SL-08 RB Rocket 3.9 17:57:47 10° SE 18:02:15 55° ENE 18:06:43 10° N
NOSS 2-3 (E) 4.4 17:59:09 10° WSW 18:03:35 60° NW 18:09:08 10° NE
CZ-2C R/B 3.6 18:00:01 10° S 18:05:17 70° WSW 18:10:52 10° NNW
Cosmos 1844 Rocket 4.0 18:01:49 10° SE 18:05:21 17° E 18:08:55 10° ENE
SJ 16-02 1.9 18:01:43 10° SW 18:06:04 64° WNW 18:10:27 10° NNE
Cosmos 990 Rocket 3.9 18:01:16 10° SSW 18:06:24 80° ESE 18:11:35 10° NNE
Cosmos 2227 4.2 18:01:21 10° SSW 18:07:02 69° ESE 18:12:44 10° NE
Cosmos 1464 Rocket 4.3 18:01:48 10° SSE 18:07:32 44° E 18:13:22 10° NNE
ISS -1.6 18:06:31 10° SSE 18:07:42 11° SE 18:08:14 11° SE
Cosmos 1943 3.9 18:03:29 10° NW 18:09:00 56° WSW 18:14:31 10° S
Abrixas rocket 3.3 18:07:13 10° SW 18:09:37 24° SSE 18:11:15 15° ESE
Okean 2 Rocket 3.7 18:07:00 10° SSE 18:11:07 36° E 18:15:14 10° NNE
IRS-1A Rocket 4.4 18:06:54 10° SSE 18:12:43 64° ENE 18:18:31 10° NNW
NOSS 8 (F) 4.0 18:09:40 10° SW 18:12:45 69° SE 18:15:48 10° NE
Lacrosse 5 rocket 1.6 18:10:19 10° WSW 18:14:36 79° NNW 18:19:07 10° ENE
Cosmos 1437 4.0 18:13:58 10° NNW 18:16:49 39° W 18:19:38 10° SSW
Ariane Rocket 3.0 18:11:55 10° SSE 18:16:56 65° ENE 18:21:59 10° NNW
NOSS 3-2 (A) 4.0 18:11:31 10° NW 18:18:45 83° NE 18:26:31 12° SE
USA 116 3.7 18:17:46 10° N 18:21:04 69° WNW 18:24:40 10° SSW
NOSS 2-2 (C) 4.0 18:18:58 10° S 18:22:03 29° ESE 18:25:30 10° ENE
Cosmos 1833 Rocket 4.1 18:17:36 10° NNW 18:22:09 24° NNE 18:26:05 12° E
Cosmos 2227 Rocket 4.2 18:18:53 10° W 18:23:48 29° NW 18:28:43 10° NNE
Resurs 1-3 4.2 18:20:34 14° SE 18:24:00 37° ENE 18:28:03 10° N
Cosmos 1300 Rocket 3.8 18:20:10 10° SSE 18:24:22 45° E 18:28:37 10° NNE
SPOT 3 Rocket 4.0 18:22:59 13° SE 18:27:13 42° ENE 18:32:03 10° N
MetOp-A 4.2 18:23:28 10° SSE 18:28:46 65° ENE 18:34:05 10° N
Cosmos 1867 4.2 18:27:31 10° NW 18:32:52 55° SW 18:38:11 10° SSE
Cosmos 1898 Rocket 3.7 18:28:23 10° SSW 18:33:34 73° WNW 18:38:47 10° NNE
Cosmos 1891 Rocket 4.4 18:29:07 10° S 18:35:12 71° E 18:41:14 10° NNE
Cosmos 1536 Rocket 3.5 18:32:29 10° N 18:36:55 67° ENE 18:41:16 11° SSE
USA 234 4.0 18:34:37 10° ENE 18:40:11 29° SE 18:45:45 10° S
Terra 4.0 18:40:20 10° ENE 18:41:50 11° NE 18:43:20 10° NNE
Cosmos 1626 3.4 18:39:36 10° NNE 18:42:40 24° ENE 18:43:18 23° E
Meteor 2-5 Rocket 4.1 18:39:03 10° N 18:44:27 46° ENE 18:48:05 20° SE
DMSP B5D2-2 4.2 18:39:46 10° NNE 18:44:57 51° E 18:50:06 10° S
CREW DRAGON DEMO-1 DEB 2.9 18:44:04 10° W 18:47:04 61° S 18:47:59 38° ESE
Cosmos 1025 Rocket 3.3 18:46:33 10° NNW 18:50:55 72° W 18:55:17 10° S
CZ-4 R/B 4.5 18:49:29 10° SW 18:52:04 16° W 18:54:40 10° NW
Cosmos 2151 Rocket 3.5 18:47:50 10° S 18:52:14 63° E 18:56:42 10° NNE
USA 186 2.8 18:49:23 10° S 18:52:24 46° W 18:55:34 10° NNW
Cosmos 372 Rocket 3.9 18:47:27 10° SSW 18:52:39 67° ESE 18:57:51 10° NNE
NOSS 3-2 (C) 4.0 18:45:36 10° NW 18:52:51 85° NE 18:58:45 21° SE
Cosmos 2150 Rocket 4.2 18:49:57 10° S 18:55:07 48° ESE 19:00:21 10° NE
Nadezhda 4 Rocket 3.9 18:51:26 10° N 18:57:37 88° WSW 19:03:44 10° S
Cosmos 1805 3.8 19:00:42 35° ESE 19:01:11 37° E 19:04:49 10° NNE
MOS 1 Rocket 4.0 18:57:33 10° N 19:02:01 53° WNW 19:06:16 10° SW
Cosmos 2082 Rocket 3.5 18:57:20 10° NNW 19:02:01 26° NE 19:04:43 18° ENE
SPOT 5 4.5 19:00:55 19° ENE 19:02:25 22° NE 19:06:24 10° N
OBJECT-B 0.7 19:01:22 32° SSE 19:02:46 89° WSW 19:06:02 10° NNW
Cosmos 1937 Rocket 4.1 18:58:07 10° SW 19:03:18 59° WNW 19:08:29 10° NNE
Cosmos 2034 Rocket 4.0 18:58:01 10° S 19:04:23 78° E 19:10:45 10° NNE
Cosmos 1125 Rocket 3.9 19:01:09 10° S 19:06:06 41° ESE 19:11:05 10° NE
FREGAT/IRIS 3.8 19:05:31 19° SSW 19:06:59 35° W 19:09:27 10° NNW
Exosat Rocket 3.9 19:02:22 10° S 19:07:24 39° ESE 19:12:02 10° NE
Cosmos 1674 2.6 19:03:53 10° N 19:07:46 90° ENE 19:09:42 28° S
COSMOS 2406 3.7 19:04:24 10° NNW 19:09:54 46° NE 19:12:17 30° ESE
Meteor 1-24 Rocket 3.8 19:06:18 10° N 19:11:40 56° ENE 19:14:10 31° SE
SL-14 R/B 3.6 19:12:04 10° N 19:15:51 45° ENE 19:16:09 44° E
Cosmos 1733 4.0 19:17:22 35° ENE 19:17:22 35° ENE 19:20:15 10° NNE
ERS-1 Rocket 4.0 19:17:23 27° E 19:18:22 29° ENE 19:22:39 10° N
NOSS 2-2 (E) 3.2 19:15:35 10° SW 19:19:11 84° NW 19:23:32 10° NE
Resurs 01 Rocket 1.5 19:19:16 36° SSE 19:21:06 81° ENE 19:25:35 10° NNW
H-2A R/B 4.3 19:18:18 10° SW 19:22:09 22° W 19:26:05 10° NW
CZ-2C R/B 2.8 19:16:56 10° NNE 19:22:27 79° WNW 19:28:02 10° SSW
ATLAS 2AS CENTAUR R/B 3.7 19:24:48 29° ESE 19:24:48 29° ESE 19:30:55 10° ENE
Lacrosse 4 Rocket 2.9 19:21:46 10° NNW 19:25:08 24° NE 19:25:54 23° NE
SJ-6B 4.3 19:21:52 10° SSW 19:25:15 32° W 19:28:42 10° NNW
KORONAS-FOTON 4.2 19:21:29 10° NNW 19:25:23 62° W 19:27:14 29° SSW
Landsat 7 4.0 19:25:47 43° ESE 19:26:51 52° ENE 19:31:29 10° N
NOSS 2-2 (D) 3.1 19:24:03 10° SW 19:27:37 87° NW 19:31:53 10° NE
Cosmos 1766 3.2 19:33:40 65° E 19:33:40 65° E 19:37:29 10° NNE
CENTAUR R/B 3.3 19:25:47 10° NW 19:33:38 73° SW 19:38:32 29° SSE
ATLAS CENTAUR R/B 3.8 19:31:54 10° NW 19:34:22 16° N 19:36:46 10° NNE
SPOT 1/Viking Rocket 3.8 19:33:46 43° ESE 19:34:55 52° ENE 19:39:57 10° N
Cosmos 1844 3.6 19:30:54 10° SSW 19:36:29 60° ESE 19:42:02 10° NE
Cosmos 2278 Rocket 4.4 19:40:44 11° ENE 19:40:44 11° ENE 19:40:57 10° ENE
IGS 5A 3.4 19:37:08 60° E 19:37:20 61° ENE 19:41:27 10° N
Cosmos 1634 Rocket 3.9 19:34:23 26° S 19:37:59 66° E 19:44:08 10° NNE
ARIANE 5 R/B 2.5 19:37:43 60° SE 19:38:22 73° ENE 19:42:43 10° NNW
Cosmos 1269 Rocket 3.9 19:34:30 10° NNW 19:39:52 89° ENE 19:41:30 46° SSE
ATLAS 3B R/B 2.8 19:33:12 10° NW 19:39:59 67° NE 19:42:49 38° ESE
USA 238 DEB 4.5 19:34:27 10° NW 19:41:19 49° SW 19:45:38 24° S
USA 238 4.5 19:34:33 10° NW 19:41:25 50° SW 19:45:43 24° S
Cosmos 2263 Rocket 3.7 19:36:30 10° WSW 19:41:40 37° NW 19:46:53 10° NNE
Cosmos 2285 Rocket 3.9 19:36:33 10° SSW 19:42:47 68° ESE 19:49:07 10° NNE
MetOp-B 4.0 19:41:10 42° SSE 19:43:05 86° ENE 19:48:29 10° NNW
ISS -1.2 19:40:40 10° SW 19:41:13 14° SW 19:41:13 14° SW
Cosmos 1455 Rocket 4.5 19:45:55 25° NE 19:45:55 25° NE 19:48:12 10° NNE
Cosmos 909 Rocket 4.4 19:41:03 10° NW 19:47:48 55° NE 19:49:59 38° E
Cosmos 1844 Rocket 2.5 19:42:51 10° SSW 19:48:25 84° ESE 19:54:04 10° NNE
Spot 2 Rocket 3.4 19:48:08 57° SE 19:49:04 73° ENE 19:54:07 10° NNW
Okean 1 Rocket 3.3 19:51:21 33° SSW 19:53:20 72° WNW 19:57:51 10° N
Cosmos 1340 Rocket 4.1 19:55:19 31° NNE 19:55:19 31° NNE 19:57:34 10° NNE
Lacrosse 5 rocket 2.1 19:49:51 10° WNW 19:54:10 53° N 19:55:13 43° NE
Cosmos 2026 Rocket 4.3 19:57:13 10° NNW 20:03:30 64° W 20:06:56 28° SSW
CZ-2C R/B 3.9 19:59:22 10° N 20:03:47 66° WNW 20:05:30 36° SW
Meteor 2-19 Rocket 4.3 19:58:09 10° N 20:04:19 77° ENE 20:05:40 56° SSE
Cosmos 1833 Rocket 2.6 20:01:19 10° NNW 20:07:01 77° ENE 20:07:46 65° ESE
NOSS 2-2 (C) 4.3 20:08:51 10° WSW 20:12:24 46° NNW 20:15:46 15° NE
Cosmos 2251 Rocket 3.7 20:07:18 10° NNW 20:12:38 57° ENE 20:12:49 57° ENE
H-2A R/B 4.4 20:10:42 10° NNE 20:13:27 39° NNE 20:13:27 39° NNE
Cosmos 1626 3.5 20:14:36 10° NNW 20:17:51 35° W 20:17:51 35° W
Terra 2.3 20:19:13 48° NE 20:19:13 48° NE 20:23:14 10° N
Cosmos 1892 Rocket 4.0 20:15:55 10° NNW 20:20:06 56° W 20:20:06 56° W
Cosmos 2279 Rocket 3.9 20:20:51 56° S 20:22:17 85° E 20:28:36 10° NNE
Cosmos 2142 Rocket 4.4 20:21:19 44° SSW 20:23:30 84° W 20:29:47 10° N
USA 234 3.1 20:19:23 21° ENE 20:23:57 73° SSE 20:30:30 10° SW
CARTOSAT-1 4.1 20:29:30 56° NNW 20:29:30 56° NNW 20:32:58 10° NNW
SPOT 5 3.1 20:40:09 79° NW 20:40:09 79° NW 20:45:14 10° NNW
Cosmos 2082 Rocket 2.2 20:41:13 10° NNW 20:46:33 80° NNW 20:46:33 80° NNW
NOSS 3-4 (A) 4.3 20:54:06 36° ENE 20:54:06 36° ENE 20:57:52 10° NE
NOSS 3-4 (C) 4.4 20:54:16 35° ENE 20:54:16 35° ENE 20:57:58 10° NE
COSMOS 2406 3.9 20:48:53 10° NW 20:54:13 43° WSW 20:54:20 43° WSW
ERS-1 Rocket 3.5 20:57:24 53° WNW 20:57:24 53° WNW 21:01:53 10° NNW
Resurs 01 Rocket 4.1 20:56:51 14° WSW 20:58:11 16° W 21:00:52 10° NW
Cosmos 2098 Rocket 4.4 20:55:34 10° NNW 21:02:44 60° W 21:03:50 53° SW
Lacrosse 4 Rocket 3.2 21:00:10 10° NW 21:02:11 28° NW 21:02:11 28° NW
Cosmos 2266 Rocket 4.0 20:59:28 10° NNW 21:05:29 65° W 21:05:35 65° W
Meteor 2-21 4.4 21:01:30 10° NNW 21:07:24 81° N 21:07:24 81° N
Cosmos 1809 Rocket 4.4 21:02:27 10° NNW 21:08:28 79° WNW 21:08:28 79° WNW
ATLAS CENTAUR R/B 3.9 21:12:02 10° NNW 21:13:41 16° N 21:13:41 16° N
ATLAS 2AS CENTAUR R/B 2.9 21:11:59 47° SW 21:14:39 86° SE 21:22:30 10° NE
SME Rocket 4.2 21:09:42 10° NNE 21:14:54 54° NNE 21:14:54 54° NNE
Cosmos 2278 Rocket 3.1 21:22:33 40° NNE 21:22:33 40° NNE 21:26:07 10° NNE
ATLAS 3B R/B 3.4 21:24:06 10° NW 21:30:03 43° WSW 21:30:03 43° WSW
Lacrosse 5 rocket 3.7 21:29:13 10° WNW 21:30:51 22° WNW 21:30:51 22° WNW
Cosmos 1833 Rocket 4.5 21:46:00 10° NW 21:49:28 22° W 21:49:28 22° W
Terra 3.9 21:58:06 22° WNW 21:58:06 22° WNW 22:00:37 10° NW
Cosmos 1745 Rocket 4.4 21:51:57 10° N 21:56:46 55° NNE 21:56:46 55° NNE
USA 234 3.4 22:00:32 10° ENE 22:07:01 71° N 22:13:32 10° W
SL-16 R/B 4.5 22:27:14 17° ENE 22:29:07 20° NE 22:33:22 10° N
Cosmos 2082 Rocket 4.3 22:26:19 10° NW 22:28:23 17° WNW 22:28:23 17° WNW
Cosmos 1943 Rocket 3.9 22:35:46 26° NE 22:35:46 26° NE 22:38:11 10° NE
COSMOS 2455 3.8 22:35:52 42° NNE 22:35:52 42° NNE 22:39:50 10° NE
USA 229 DEB 4.1 22:29:50 10° NW 22:36:52 60° NNE 22:37:22 59° NE
USA 229 4.2 22:29:56 10° NW 22:36:57 60° NNE 22:37:29 58° NE
NOSS 3-4 (A) 4.4 22:41:29 41° NW 22:42:45 46° NNW 22:49:11 10° NE
NOSS 3-4 (C) 4.4 22:41:39 41° NW 22:42:51 46° NNW 22:49:17 10° NE
Cosmos 2297 Rocket 4.3 22:40:16 10° NNW 22:44:37 22° NNE 22:47:05 17° ENE
NOSS 3-1 (A) 4.3 22:42:01 10° NW 22:48:55 59° NNE 22:50:19 52° ENE
Cosmos 2369 Rocket 3.7 22:59:18 29° NE 22:59:18 29° NE 23:02:06 10° NE
CZ-4C R/B 3.4 23:02:00 41° NE 23:02:00 41° NE 23:06:18 10° NE
Cosmos 2278 Rocket 3.9 23:04:22 26° NW 23:05:15 27° NW 23:10:02 10° NNE
ATLAS 2AS CENTAUR R/B 3.8 22:59:08 12° W 23:06:24 48° NNW 23:13:47 10° NE
NOSS 3-1 (C) 4.2 23:23:08 10° NW 23:28:49 61° WNW 23:28:49 61° WNW
Cosmos 2227 Rocket 3.6 23:37:12 10° NNW 23:42:19 33° NE 23:43:30 30° ENE
USA 234 3.4 23:43:21 10° E 23:49:51 70° N 23:56:21 10° WNW
Timation 2 Rocket 4.4 23:43:51 10° NNW 23:49:04 57° N 23:49:04 57° N
ADEOS II 4.4 23:54:25 10° NE 23:57:06 14° E 23:57:32 14° E
